Waarnemingen

Advertentie
Mijn weer
Rostock-Warnemünde, Duitsland (10170): temperatuur & dauwpunt: 11.10.2017 09:00:00 - 17.10.2017 09:00:00 (CEST)Rostock-Warnemünde, Duitsland (10170): temperatuur 5cm & temperatuur -5cm: 11.10.2017 09:00:00 - 17.10.2017 09:00:00 (CEST)Rostock-Warnemünde, Duitsland (10170): temperatuur -20cm & temperatuur -100cm: 11.10.2017 09:00:00 - 17.10.2017 09:00:00 (CEST)Rostock-Warnemünde, Duitsland (10170): windsnelheid & windstoten: 11.10.2017 09:00:00 - 17.10.2017 09:00:00 (CEST)Rostock-Warnemünde, Duitsland (10170): windrichting: 11.10.2017 09:00:00 - 17.10.2017 09:00:00 (CEST)Rostock-Warnemünde, Duitsland (10170): luchtdruk: 11.10.2017 09:00:00 - 17.10.2017 09:00:00 (CEST)Rostock-Warnemünde, Duitsland (10170): zicht: 11.10.2017 09:00:00 - 17.10.2017 09:00:00 (CEST)Rostock-Warnemünde, Duitsland (10170): Zonneschijnduur: 11.10.2017 09:00:00 - 17.10.2017 09:00:00 (CEST)Rostock-Warnemünde, Duitsland (10170): neerslag: 11.10.2017 09:00:00 - 17.10.2017 09:00:00 (CEST)
Datum & Tijd tt [°C] td [°C] tt 5cm [°C] tt -5cm [°C] tt -20cm [°C] tt -100cm [°C] ff [km/u] ff [kn] fx [km/u] fx [kn] dd ppp [hPa] vv [km] sd [min] rr [mm]
17.10.2017 09:00:00 15,2 12,5 14,0 12,4 13,3 13,8 13 7 21 12 Z 1018,9 11 0 0,0
17.10.2017 08:00:00 14,9 12,4 13,4 12,3 13,4 13,8 15 8 21 11 ZZW 1018,6 13 0 0,0
17.10.2017 07:00:00 14,8 12,3 13,6 12,5 13,5 13,8 16 9 23 12 ZZW 1018,4 15 0 0,0
17.10.2017 06:00:00 15,8 12,6 14,3 12,6 13,6 13,8 16 9 24 13 Z 1018,1 17 0 0,0
17.10.2017 05:00:00 15,5 12,8 13,9 12,8 13,7 13,8 13 7 21 11 Z 1018,4 14 0 0,0
17.10.2017 04:00:00 15,3 13,6 13,7 13,1 13,8 13,8 12 6 21 11 Z 1018,7 10 0 0,0
17.10.2017 03:00:00 15,1 14,0 13,7 13,1 13,8 13,7 11 6 18 10 ZZO 1019,0 8 0 0,0
17.10.2017 02:00:00 15,2 14,4 13,4 13,0 13,9 13,7 7 4 20 11 ZZO 1019,5 8 0 0,0
17.10.2017 01:00:00 15,1 14,4 13,9 13,0 14,0 13,7 12 7 20 11 ZZO 1019,7 6 0 0,0
17.10.2017 00:00:00 14,4 14,0 13,1 13,0 14,2 13,7 12 7 17 9 ZZO 1019,9 3,6 0 0,0
16.10.2017 23:00:00 14,4 13,8 13,1 13,2 14,3 13,7 10 6 16 9 ZZO 1020,1 3,3 0 0,0
16.10.2017 22:00:00 14,5 14,0 13,1 13,3 14,5 13,7 11 6 17 9 ZZO 1020,1 2,9 0 0,0
16.10.2017 21:00:00 14,2 13,5 13,1 13,6 14,8 13,7 12 7 16 8 ZO 1020,3 3,0 0 0,0
16.10.2017 20:00:00 14,3 13,4 12,7 13,9 15,0 13,7 10 6 15 8 ZO 1020,4 3,0 0 0,0
16.10.2017 19:00:00 14,9 13,7 12,4 14,4 15,3 13,7 7 4 11 6 OZO 1020,2 5 0 0,0
16.10.2017 18:00:00 14,7 13,4 12,2 15,5 15,5 13,7 4 2 11 6 O 1020,1 4,8 5 0,0
16.10.2017 17:00:00 14,6 13,1 14,2 16,8 15,5 13,7 9 5 12 7 ONO 1020,4 4,5 57 0,0
16.10.2017 16:00:00 15,3 13,2 16,8 18,0 15,3 13,7 6 3 10 5 N 1020,7 6 53 0,0
16.10.2017 15:00:00 15,4 12,7 17,2 18,2 14,9 13,7 6 4 16 9 WNW 1020,8 4,9 59 0,0
16.10.2017 14:00:00 16,0 13,2 18,5 18,5 14,3 13,7 12 7 19 11 W 1020,9 4,1 60 0,0
16.10.2017 13:00:00 15,9 12,9 18,4 17,5 13,8 13,7 13 7 24 13 WNW 1020,9 4,5 60 0,0
16.10.2017 12:00:00 16,6 13,0 18,0 15,7 13,3 13,7 15 8 28 15 W 1020,7 2,8 60 0,0
16.10.2017 11:00:00 16,7 12,9 17,2 13,9 13,0 13,7 10 5 20 11 WZW 1020,4 2,9 60 0,0
16.10.2017 10:00:00 15,6 12,3 15,1 12,3 12,9 13,7 11 6 21 11 ZW 1019,9 2,6 60 0,0
16.10.2017 09:00:00 14,0 11,8 12,9 11,5 13,0 13,7 14 8 24 13 ZZW 1019,5 2,7 32 0,0
16.10.2017 08:00:00 13,2 11,2 12,0 11,4 13,2 13,6 16 9 23 12 ZZW 1019,3 4,1 0 0,0
16.10.2017 07:00:00 13,7 11,3 12,5 11,6 13,4 13,6 14 7 19 10 Z 1019,3 6 0 0,0
16.10.2017 06:00:00 13,9 11,4 12,4 11,8 13,6 13,6 12 7 19 10 Z 1019,2 9 0 0,0
16.10.2017 05:00:00 15,3 11,8 13,8 12,2 13,7 13,6 14 8 26 14 Z 1019,2 5 0 0,0
16.10.2017 04:00:00 15,5 11,9 14,0 12,3 13,9 13,6 16 9 23 13 ZZW 1019,4 6 0 0,0
16.10.2017 03:00:00 15,4 12,5 13,1 12,4 14,1 13,6 10 6 20 11 Z 1019,8 8 0 0,0
16.10.2017 02:00:00 14,9 12,8 13,5 12,9 14,3 13,6 12 6 23 12 Z 1019,7 8 0 0,0
16.10.2017 01:00:00 15,8 13,3 14,6 13,3 14,5 13,6 15 8 23 12 Z 1019,7 9 0 0,0
16.10.2017 00:00:00 15,7 13,7 14,5 13,4 14,7 13,6 13 7 20 11 Z 1020,2 6 0 0,0
15.10.2017 23:00:00 16,0 14,0 14,4 13,8 15,0 13,5 12 6 22 12 Z 1020,4 6 0 0,0
15.10.2017 22:00:00 16,3 14,7 14,8 14,1 15,2 13,5 11 6 21 12 Z 1020,7 10 0 0,0
15.10.2017 21:00:00 16,5 14,9 14,8 14,5 15,5 13,5 11 6 22 12 Z 1021,2 7 0 0,0
15.10.2017 20:00:00 17,0 15,0 15,4 15,0 15,7 13,5 11 6 21 12 Z 1021,5 8 0 0,0
15.10.2017 19:00:00 17,7 15,1 16,1 15,7 16,0 13,5 10 5 22 12 Z 1021,6 9 0 0,0
15.10.2017 18:00:00 18,7 15,0 17,1 16,8 16,1 13,5 10 5 24 13 Z 1021,6 13 11 0,0
15.10.2017 17:00:00 19,3 14,7 18,3 18,1 16,0 13,5 11 6 22 12 Z 1022,0 17 60 0,0
15.10.2017 16:00:00 20,0 14,2 21,1 19,4 15,6 13,5 9 5 23 13 Z 1022,7 16 60 0,0
15.10.2017 15:00:00 18,9 14,4 20,3 19,3 15,1 13,5 10 5 19 11 ZZO 1023,2 10 60 0,0
15.10.2017 14:00:00 17,0 13,9 19,2 18,3 14,7 13,5 10 5 23 12 ZZO 1023,9 9 27 0,0
15.10.2017 13:00:00 14,9 13,6 16,3 16,7 14,4 13,5 10 6 21 12 Z 1024,4 9 0 0,0
15.10.2017 12:00:00 14,3 13,4 15,6 15,8 14,1 13,4 9 5 19 11 Z 1024,5 8 0 0,0
15.10.2017 11:00:00 14,5 13,6 15,2 15,1 13,9 13,4 8 4 16 8 ZZW 1025,0 6 0 0,0
15.10.2017 10:00:00 14,4 13,6 14,7 14,2 13,9 13,4 7 4 12 6 ZZW 1025,2 4,8 0 0,0
15.10.2017 09:00:00 14,1 13,4 14,0 13,5 13,9 13,4 6 4 12 7 ZZW 1025,2 6 0 0,0
15.10.2017 08:00:00 13,7 13,0 12,8 12,8 14,1 13,4 8 4 17 9 ZZW 1024,7 6 0 0,0
15.10.2017 07:00:00 14,4 13,2 13,0 13,4 14,3 13,4 8 4 25 14 ZW 1024,5 9 0 0,0
15.10.2017 06:00:00 15,0 13,3 14,0 13,7 14,4 13,4 11 6 24 13 ZW 1023,9 15 0 0,0
15.10.2017 05:00:00 15,5 13,5 14,2 14,1 14,5 13,4 13 7 35 19 ZW 1023,5 19 0 0,0
15.10.2017 04:00:00 15,9 13,6 15,7 14,7 14,6 13,4 21 11 37 20 W 1023,7 19 0 0,0
15.10.2017 03:00:00 15,8 13,7 15,4 14,6 14,6 13,4 14 8 31 17 WZW 1023,5 13 0 0,0
15.10.2017 02:00:00 16,3 14,0 16,0 15,0 14,6 13,3 18 10 38 20 WZW 1023,5 13 0 0,0
15.10.2017 01:00:00 16,3 13,9 16,0 15,0 14,6 13,3 16 9 40 22 WZW 1023,5 13 0 0,0
15.10.2017 00:00:00 16,5 13,9 16,2 15,1 14,7 13,3 19 10 33 18 W 1023,3 14 0 0,0
14.10.2017 23:00:00 16,4 14,0 16,1 15,0 14,7 13,3 16 9 34 18 WZW 1023,5 11 0 0,0
14.10.2017 22:00:00 16,3 14,0 16,0 15,0 14,7 13,3 19 10 35 19 WZW 1023,6 12 0 0,0
14.10.2017 21:00:00 16,3 14,1 15,9 15,1 14,8 13,3 15 8 27 15 WZW 1023,8 13 0 0,0
14.10.2017 20:00:00 16,1 14,4 15,8 15,2 14,9 13,3 14 8 33 18 WZW 1023,4 14 0 0,0
14.10.2017 19:00:00 15,9 14,9 15,7 15,4 15,0 13,3 14 8 29 16 WZW 1023,4 11 0 0,0
14.10.2017 18:00:00 16,1 14,9 15,7 15,8 15,0 13,3 16 9 38 21 ZW 1022,8 10 0 0,0
14.10.2017 17:00:00 16,6 14,5 16,5 16,3 15,0 13,3 19 11 33 18 W 1022,8 18 0 0,0
14.10.2017 16:00:00 16,8 14,6 16,9 16,6 14,8 13,3 17 9 37 20 WZW 1022,2 19 0 0,0
14.10.2017 15:00:00 17,0 14,6 17,5 16,8 14,6 13,3 18 10 42 23 WZW 1022,1 20 0 0,0
14.10.2017 14:00:00 17,0 14,6 17,5 16,6 14,4 13,3 20 11 42 23 WZW 1021,8 19 0 0,0
14.10.2017 13:00:00 16,8 14,4 17,1 16,2 14,2 13,3 22 12 44 24 W 1022,1 14 0 0,0
14.10.2017 12:00:00 16,9 14,4 17,2 16,1 13,9 13,3 20 11 36 19 W 1021,9 12 0 0,0
14.10.2017 11:00:00 16,6 14,3 16,9 15,1 13,7 13,3 19 10 38 21 WZW 1021,6 10 0 0,0
14.10.2017 10:00:00 16,4 14,1 16,2 14,6 13,6 13,3 14 8 32 17 WZW 1021,6 10 0 0,0
14.10.2017 09:00:00 16,3 14,0 16,1 14,4 13,5 13,3 15 8 29 16 ZW 1020,9 9 0 0,0
14.10.2017 08:00:00 16,1 14,0 15,7 14,1 13,4 13,3 13 7 27 15 ZW 1020,4 9 0 0,0
14.10.2017 07:00:00 16,1 13,8 15,7 14,0 13,4 13,3 15 8 31 17 ZW 1020,6 9 0 0,0
14.10.2017 06:00:00 16,1 13,8 15,6 14,0 13,3 13,2 16 9 33 18 ZW 1020,6 10 0 0,0
14.10.2017 05:00:00 15,9 13,6 15,5 13,8 13,2 13,2 14 8 27 15 ZW 1020,8 12 0 0,0
14.10.2017 04:00:00 15,8 13,4 15,3 13,7 13,2 13,2 14 8 27 15 ZZW 1021,0 13 0 0,0
14.10.2017 03:00:00 15,7 13,2 15,2 13,4 13,1 13,2 14 8 32 17 ZW 1021,1 13 0 0,0
14.10.2017 02:00:00 15,4 12,8 14,9 13,2 13,1 13,2 16 9 27 14 ZW 1021,2 16 0 0,0
14.10.2017 01:00:00 15,0 12,2 14,5 13,1 13,1 13,2 16 9 28 15 ZZW 1021,3 19 0 0,0
14.10.2017 00:00:00 14,5 11,7 14,1 13,0 13,1 13,2 13 7 22 12 ZZW 1021,4 20 0 0,0
13.10.2017 23:00:00 14,4 11,3 14,0 12,9 13,2 13,2 14 8 23 13 ZZW 1021,8 20 0 0,0
13.10.2017 22:00:00 14,3 10,8 13,9 13,0 13,2 13,3 13 7 24 13 Z 1022,0 20 0 0,0
13.10.2017 21:00:00 14,3 10,8 13,9 13,0 13,3 13,3 12 7 21 11 ZZW 1022,2 21 0 0,0
13.10.2017 20:00:00 14,4 10,9 14,0 13,1 13,4 13,3 15 8 26 14 ZZW 1022,1 21 0 0,0
13.10.2017 19:00:00 14,3 11,0 13,8 13,2 13,6 13,3 10 5 16 9 Z 1022,0 20 0 0,0
13.10.2017 18:00:00 14,9 10,8 14,3 14,0 13,7 13,3 10 5 24 13 ZZW 1022,1 23 11 0,0
13.10.2017 17:00:00 15,2 11,0 14,7 14,6 13,7 13,3 13 7 25 14 ZW 1022,0 26 35 0,0
13.10.2017 16:00:00 16,0 11,1 17,2 15,7 13,5 13,3 14 8 27 15 W 1021,9 28 35 0,0
13.10.2017 15:00:00 16,0 10,5 17,6 16,3 13,1 13,3 13 7 25 13 WZW 1021,9 24 36 0,0
13.10.2017 14:00:00 14,9 10,1 17,1 16,4 12,5 13,3 9 5 19 11 W 1022,0 14 57 0,0
13.10.2017 13:00:00 14,4 10,1 16,7 15,3 11,9 13,3 11 6 23 13 W 1022,4 21 60 0,0
13.10.2017 12:00:00 14,1 9,7 16,0 13,6 11,5 13,3 11 6 25 13 W 1022,2 25 56 0,0
13.10.2017 11:00:00 12,0 9,4 12,2 11,5 11,3 13,3 10 6 28 15 WZW 1022,4 28 7 0,0
13.10.2017 10:00:00 11,1 9,0 11,3 10,7 11,2 13,3 14 7 28 15 ZW 1021,7 23 3 0,0
13.10.2017 09:00:00 10,7 9,0 10,0 9,9 11,3 13,3 11 6 27 14 ZW 1021,2 25 0 0,0
13.10.2017 08:00:00 10,7 9,3 9,4 9,8 11,5 13,3 11 6 31 17 ZW 1020,8 21 0 0,0
13.10.2017 07:00:00 11,6 9,5 10,6 10,3 11,5 13,3 18 10 46 25 WZW 1020,3 26 0 0,0
13.10.2017 06:00:00 12,2 9,9 11,7 10,7 11,6 13,3 27 15 48 26 W 1019,9 25 0 0,0
13.10.2017 05:00:00 12,1 9,9 11,6 10,5 11,7 13,3 27 14 47 26 W 1019,4 23 0 0,0
13.10.2017 04:00:00 11,9 9,8 11,0 10,6 11,8 13,3 24 13 44 24 W 1018,9 21 0 0,0
13.10.2017 03:00:00 11,8 9,8 11,2 10,8 11,8 13,3 21 12 43 23 W 1018,6 23 0 0,0
13.10.2017 02:00:00 12,3 9,7 11,7 10,9 11,9 13,3 26 14 43 23 W 1018,1 22 0 0,0
13.10.2017 01:00:00 12,2 9,7 11,7 10,8 12,0 13,3 19 10 47 25 WZW 1017,7 21 0 0,0
13.10.2017 00:00:00 12,8 9,8 12,0 11,0 12,0 13,3 37 20 57 31 W 1017,4 18 0 0,0
12.10.2017 23:00:00 12,8 9,7 11,0 11,1 12,1 13,2 43 23 63 34 W 1017,2 19 0 0,2
12.10.2017 22:00:00 12,9 9,4 12,4 11,1 12,2 13,2 36 20 62 33 W 1016,7 21 0 0,0
12.10.2017 21:00:00 12,9 9,0 12,1 11,0 12,4 13,2 37 20 61 33 W 1016,3 20 0 0,0
12.10.2017 20:00:00 13,1 8,5 12,5 11,2 12,5 13,2 39 21 64 34 W 1015,7 22 0 0,0
12.10.2017 19:00:00 13,3 7,8 12,7 11,4 12,7 13,2 37 20 62 34 W 1015,2 24 0 0,0
12.10.2017 18:00:00 13,2 8,6 12,6 11,9 12,9 13,2 40 21 61 33 W 1014,6 23 0 0,0
12.10.2017 17:00:00 13,4 8,7 12,9 12,7 13,0 13,2 39 21 66 36 W 1014,0 22 19 0,0
12.10.2017 16:00:00 13,7 8,5 13,5 13,1 13,0 13,2 31 17 65 35 W 1013,2 24 11 0,0
12.10.2017 15:00:00 13,7 8,5 14,0 13,3 12,9 13,2 49 26 76 41 W 1012,5 16 29 0,0
12.10.2017 14:00:00 13,4 10,1 12,5 13,5 12,8 13,2 42 23 68 37 W 1011,4 17 13 0,1
12.10.2017 13:00:00 13,7 10,0 13,7 14,1 12,6 13,2 42 23 66 36 W 1010,4 15 34 0,4
12.10.2017 12:00:00 13,0 10,2 12,2 12,9 12,5 13,2 42 23 64 35 W 1009,3 20 6 1,2
12.10.2017 11:00:00 12,7 9,7 11,7 12,7 12,4 13,2 30 16 56 30 WZW 1008,4 12 22 0,0
12.10.2017 10:00:00 14,0 9,8 13,5 12,1 12,3 13,2 23 12 49 26 WZW 1007,7 25 27 0,0
12.10.2017 09:00:00 13,8 10,2 12,7 12,0 12,4 13,2 27 14 51 28 WZW 1007,3 32 3 0,0
12.10.2017 08:00:00 13,6 11,0 12,1 11,5 12,4 13,2 21 12 46 25 ZW 1006,4 30 0 0,0
12.10.2017 07:00:00 13,3 11,5 11,7 11,8 12,5 13,2 19 10 45 24 ZW 1006,0 24 0 0,1
12.10.2017 06:00:00 12,8 11,7 12,0 12,1 12,5 13,2 20 11 41 22 ZZW 1006,3 6 0 0,2
12.10.2017 05:00:00 13,6 10,4 13,0 11,9 12,6 13,2 23 12 41 22 ZZW 1006,3 23 0 0,0
12.10.2017 04:00:00 13,6 10,3 13,0 11,9 12,7 13,2 21 11 43 23 ZZW 1006,8 22 0 0,0
12.10.2017 03:00:00 13,6 9,8 13,0 11,9 12,8 13,2 21 11 38 20 ZZW 1008,0 25 0 0,0
12.10.2017 02:00:00 13,9 9,4 13,3 12,2 12,9 13,1 18 10 40 22 ZZW 1008,7 41 0 0,0
12.10.2017 01:00:00 14,0 10,2 13,4 12,4 13,0 13,1 18 10 35 19 ZZW 1009,3 29 0 0,0
12.10.2017 00:00:00 14,1 10,6 13,5 12,6 13,1 13,1 21 11 37 20 ZZW 1010,1 28 0 0,0
11.10.2017 23:00:00 14,2 10,9 13,7 12,9 13,2 13,1 18 10 32 17 ZZW 1010,4 28 0 0,0
11.10.2017 22:00:00 14,4 11,3 13,5 13,1 13,3 13,1 16 9 34 18 ZW 1010,7 26 0 0,0
11.10.2017 21:00:00 14,6 12,0 13,8 13,3 13,4 13,1 19 10 35 19 ZW 1010,7 23 0 0,0
11.10.2017 20:00:00 14,8 12,3 13,8 13,5 13,5 13,1 16 9 33 18 ZW 1010,6 26 0 0,0
11.10.2017 19:00:00 14,9 12,5 13,9 13,8 13,5 13,1 16 9 38 21 ZW 1010,6 20 0 0,0
11.10.2017 18:00:00 15,0 13,1 14,1 14,2 13,5 13,1 17 9 37 20 ZW 1010,4 18 0 0,0
11.10.2017 17:00:00 14,9 13,4 14,0 14,4 13,5 13,1 21 12 44 24 ZW 1010,3 16 0 0,0
11.10.2017 16:00:00 14,5 13,6 14,0 14,5 13,4 13,1 19 10 35 19 ZW 1010,2 23 0 0,3
11.10.2017 15:00:00 13,9 13,5 13,7 14,6 13,3 13,1 9 5 32 18 ZZW 1010,4 3,4 0 0,9
11.10.2017 14:00:00 13,7 12,4 13,2 14,6 13,2 13,1 19 10 38 20 W 1010,8 4,3 0 0,0
11.10.2017 13:00:00 16,0 11,7 16,3 15,2 12,8 13,1 16 9 45 24 WZW 1010,5 32 23 0,0
11.10.2017 12:00:00 15,4 12,0 15,7 14,5 12,5 13,1 18 10 36 19 WZW 1010,5 19 10 0,0
11.10.2017 11:00:00 14,1 12,2 13,5 13,4 12,3 13,1 18 10 32 18 ZW 1010,5 9 0 0,0
11.10.2017 10:00:00 14,1 12,4 13,7 13,0 12,2 13,1 16 9 34 18 ZW 1010,3 18 0 0,0
11.10.2017 09:00:00 13,7 12,3 13,0 12,4 12,2 13,1 14 8 27 15 ZW 1010,1 11 0 0,0

tt = temperatuur
td = dauwpunt
tt 5cm = temperatuur 5cm
tt -5cm = temperatuur -5cm
tt -20cm = temperatuur -20cm
tt -100cm = temperatuur -100cm
ff = windsnelheid
fx = windstoten
dd = windrichting
ppp = luchtdruk
vv = zicht
sd = Zonneschijnduur
rr = neerslag

Weerstations in de omgeving